Theta_e
343 343 343 344 345 346 347 350 349 349 349 349 350 350 349 349 349 348 348 349 348 345 343 343 344 343 347 345 346 346 346 346 345 346 345 344 346 347 346 346 344 344 342 341 340 340 338 340 340 343 344 344 343 334 333 331 332 333 333 333 335 334
342 342 343 344 345 346 347 349 346 346 347 348 349 350 348 347 350 346 348 347 344 346 343 342 341 347 341 344 344 347 345 345 345 346 346 345 346 346 346 345 344 344 342 341 340 333 335 342 342 343 344 344 336 333 334 332 332 332 332 332 334 335
342 343 344 344 345 346 345 344 345 345 346 348 349 349 346 348 345 345 345 346 345 343 344 342 342 344 343 346 344 346 346 345 345 346 346 345 345 346 346 345 345 344 343 342 337 331 330 329 328 339 342 337 332 333 333 331 331 331 330 332 330 336
343 342 341 341 344 344 343 343 343 344 344 344 344 345 343 343 343 344 344 344 343 342 342 339 349 346 345 342 344 345 345 345 345 346 346 345 345 346 346 345 345 345 344 342 335 332 329 327 326 329 329 331 332 334 332 331 330 330 330 333 331 336
341 341 340 340 341 341 341 342 342 342 342 342 342 342 340 340 340 340 341 342 341 341 340 339 339 340 341 340 337 336 338 337 337 338 345 337 338 341 342 340 341 342 339 338 335 332 331 327 330 331 331 332 334 335 332 331 330 329 328 330 332 337
340 339 339 338 338 339 339 339 339 341 341 341 340 339 338 338 339 340 341 343 343 340 340 338 338 339 340 338 337 336 335 333 335 336 342 338 338 338 339 340 340 340 339 338 335 334 335 333 329 331 331 333 334 334 331 330 330 329 329 330 334 335
340 339 338 339 339 339 337 338 339 340 340 339 339 339 337 337 338 339 340 342 341 339 337 336 337 336 336 336 336 335 333 333 334 335 339 336 337 339 339 339 338 337 338 337 336 336 336 336 332 332 333 334 333 332 331 330 329 329 329 330 334 335
339 338 336 339 338 336 336 336 339 342 341 343 341 339 337 338 338 338 341 340 342 339 336 335 334 335 335 334 335 337 334 333 334 334 336 334 333 339 338 339 338 336 334 334 335 336 336 337 335 334 333 332 334 331 330 330 329 329 329 329 332 334
338 338 337 339 338 337 336 338 339 339 339 346 340 339 338 340 338 339 340 340 341 339 338 336 335 335 335 334 335 337 337 335 333 332 332 331 331 334 338 337 337 336 334 333 333 334 333 333 333 333 332 331 334 332 331 330 329 329 329 329 329 332
340 338 338 340 339 338 337 337 337 338 337 341 338 340 341 341 339 339 339 340 341 340 338 338 338 337 336 335 336 336 337 336 335 336 333 330 330 331 334 335 336 336 335 334 333 333 333 333 332 333 333 332 331 332 331 330 329 329 329 328 328 332
340 341 339 339 338 338 339 337 338 339 340 339 339 340 340 341 341 341 340 341 342 339 336 338 338 338 337 337 337 337 336 336 336 335 333 333 333 334 334 335 336 335 335 334 337 335 333 332 332 332 334 332 332 332 330 330 330 329 329 328 329 330
339 340 338 338 339 338 339 338 340 340 340 340 341 339 338 340 341 339 340 338 338 337 337 338 340 341 339 338 337 337 336 336 336 336 336 334 332 333 334 335 337 337 337 340 337 334 333 332 330 330 333 331 334 332 331 330 330 329 329 329 329 331
341 340 337 336 337 337 338 341 339 339 339 341 342 342 341 337 335 336 337 338 337 338 337 337 338 337 340 339 338 337 336 337 336 335 335 335 335 333 334 334 334 337 340 338 336 334 335 332 331 330 331 333 333 334 333 330 330 329 329 329 329 329
341 341 338 337 338 337 338 339 341 340 341 340 340 338 338 339 338 338 337 337 338 339 338 338 337 337 340 338 337 337 336 336 336 335 334 333 332 333 333 331 333 335 339 334 331 331 332 330 331 331 331 331 329 329 331 330 330 329 329 328 328 328
340 339 340 339 339 339 339 342 342 341 342 342 337 337 339 340 339 338 337 337 339 338 340 340 339 338 339 338 338 337 336 336 336 335 335 334 334 334 334 332 331 333 334 333 331 332 331 329 332 329 330 330 330 330 333 332 331 330 329 328 327 327
342 341 339 340 340 341 341 342 342 347 342 341 339 338 338 339 339 339 339 337 337 337 338 340 339 337 338 335 337 337 337 337 337 337 336 334 334 333 333 332 332 332 331 331 332 332 333 330 333 330 329 330 330 333 331 332 331 331 331 329 328 327
341 342 341 341 341 341 342 342 342 342 342 341 339 337 338 338 337 339 338 336 336 336 337 339 338 336 336 336 336 338 338 338 338 337 335 333 332 333 333 333 331 333 333 330 330 331 327 328 330 330 330 330 331 332 331 331 332 331 334 330 329 328
341 343 343 343 342 341 341 342 341 340 343 339 340 339 339 338 337 337 336 335 335 335 338 338 338 338 335 334 336 336 337 338 337 336 335 333 332 332 332 333 332 331 333 331 330 328 326 329 330 331 330 331 330 330 331 332 332 337 331 330 331 329
342 343 343 342 341 340 340 341 340 340 339 340 339 339 340 338 337 337 335 336 337 337 338 337 337 336 336 336 335 334 334 337 336 334 334 333 331 331 331 332 331 330 332 332 330 328 328 329 329 329 329 330 330 330 330 332 333 332 334 331 332 335
340 339 338 339 336 337 337 337 336 337 336 338 339 339 339 338 337 336 335 336 336 337 338 336 335 334 334 335 334 333 333 336 336 334 333 332 331 331 330 330 331 331 330 331 331 330 330 330 329 328 328 329 330 330 331 331 331 333 333 332 334 334
339 340 338 335 334 333 332 334 335 335 334 336 337 338 336 337 338 337 337 337 335 336 338 338 338 336 335 336 334 335 335 336 336 335 334 332 332 332 332 331 330 330 329 328 328 330 331 331 327 324 326 327 328 331 332 332 329 329 329 332 333 332
339 339 338 336 336 336 336 334 333 334 334 334 336 334 332 332 335 336 336 336 336 335 335 336 338 338 339 337 336 336 336 336 336 335 334 334 333 334 332 332 331 328 329 328 327 329 331 329 323 321 320 319 321 325 329 330 329 330 330 331 333 331
338 338 337 336 333 332 335 336 335 335 335 335 336 334 334 333 335 333 333 334 336 337 337 336 337 337 337 338 337 336 336 337 336 335 334 333 333 333 332 332 331 329 326 327 327 330 331 329 324 324 323 320 316 316 322 326 328 329 330 330 331 332
336 337 336 337 335 335 336 336 336 337 337 336 335 338 336 335 334 333 333 335 335 336 337 336 337 337 337 337 337 336 335 334 334 334 332 332 333 333 333 332 331 329 328 325 326 326 331 330 328 324 317 318 317 318 315 319 322 326 330 330 331 331
335 334 335 335 336 336 337 336 337 336 336 335 335 333 333 332 333 334 335 333 335 336 337 336 337 336 336 336 337 337 334 332 333 333 332 332 333 333 333 333 330 329 328 327 325 325 327 330 329 329 324 318 315 314 316 316 321 322 328 328 330 331
333 332 332 332 334 335 336 335 334 331 329 330 329 330 328 327 329 330 331 333 337 338 337 337 337 337 336 335 333 335 335 333 333 332 332 333 332 332 331 331 332 331 330 329 328 325 322 327 330 329 328 324 322 317 317 319 320 315 325 328 328 330
329 328 329 330 331 332 333 334 334 333 331 330 328 329 331 333 333 333 333 332 335 337 339 338 337 336 334 333 334 334 333 333 332 332 333 332 331 331 331 331 333 331 329 330 328 325 324 325 327 328 328 328 325 325 326 321 316 316 317 322 324 326
325 325 326 327 328 329 329 331 331 331 331 331 330 329 331 332 334 334 334 334 334 334 338 337 336 335 335 333 332 333 333 332 331 331 332 332 332 333 333 332 332 333 331 329 328 327 325 326 323 323 327 326 325 327 327 326 325 319 317 316 320 325
322 323 324 325 326 327 329 328 329 328 328 330 331 331 332 332 331 333 332 332 331 332 333 334 335 336 334 335 333 333 331 329 330 330 331 331 332 332 331 331 331 331 329 329 329 329 327 326 326 323 324 324 324 325 326 326 326 324 318 315 316 320
321 321 322 323 324 325 326 326 325 325 324 324 325 327 329 329 329 330 330 330 331 330 331 331 333 334 332 333 332 331 330 328 329 331 332 332 331 331 331 331 331 330 331 329 328 329 328 328 328 326 325 324 323 322 323 322 323 323 322 320 315 319
320 320 321 321 322 322 324 325 324 323 322 322 323 324 324 326 327 329 329 330 330 331 332 331 332 333 332 331 329 330 330 330 328 330 331 331 332 332 331 331 331 331 331 329 327 328 328 328 328 326 326 325 323 323 322 320 320 322 321 319 317 319
318 319 319 320 321 321 322 323 322 321 321 321 322 322 323 324 326 326 327 327 329 330 330 331 331 330 331 331 330 328 330 328 328 329 330 332 332 332 331 331 332 331 331 330 328 329 328 327 328 327 327 327 326 325 324 324 324 325 323 322 320 317
315 316 317 318 318 318 319 319 319 318 318 320 319 320 322 323 323 323 324 324 326 327 328 328 329 330 330 331 330 328 328 327 327 328 330 331 331 333 332 331 332 332 331 330 328 328 328 328 327 326 327 328 328 328 326 328 328 325 325 325 322 318
314 315 315 316 317 317 318 318 318 318 318 318 318 319 320 321 322 322 323 323 324 325 325 326 328 329 330 331 330 329 328 328 329 330 330 330 331 331 331 331 332 331 331 331 330 328 328 329 328 327 327 327 328 329 329 330 329 328 324 320 320 320
313 314 315 315 315 315 315 316 317 318 317 318 318 319 319 321 319 320 321 321 322 322 322 324 326 328 331 331 331 330 328 327 327 328 329 329 331 330 329 330 330 329 330 330 330 328 328 328 327 327 326 327 327 328 329 329 328 329 327 323 323 323
312 313 313 315 314 314 314 315 315 316 317 318 319 317 317 318 318 319 320 319 319 319 320 322 324 326 329 330 330 330 329 328 327 328 328 328 329 329 327 326 326 328 328 331 328 327 327 328 327 327 327 328 327 326 328 329 328 328 329 327 326 325
311 311 312 313 314 314 314 314 314 315 315 315 315 315 315 315 316 318 318 318 317 318 319 320 323 325 326 328 329 330 330 329 328 327 327 327 328 328 328 327 327 329 329 328 328 327 328 328 328 328 328 329 328 328 328 329 329 328 328 328 327 326
Wind_Speed
8 10 9 8 6 7 9 15 13 16 16 15 14 14 12 12 11 10 8 8 8 5 5 4 4 3 8 5 6 8 7 7 6 6 5 4 4 4 4 4 4 4 3 3 2 2 3 5 6 6 7 6 7 4 3 5 8 7 6 5 5 5
8 8 7 5 4 5 6 8 6 8 8 10 12 12 9 6 7 4 8 6 3 4 4 4 4 5 3 3 4 9 9 7 6 6 6 5 4 4 4 4 4 3 4 4 4 2 2 4 5 6 6 7 4 4 5 6 7 7 6 4 4 6
5 6 6 5 5 5 6 4 4 5 6 8 9 8 6 6 4 5 4 4 3 1 2 3 2 4 3 6 4 7 8 8 7 6 6 4 4 5 5 5 4 4 4 6 3 2 2 2 3 6 7 4 2 4 5 7 8 7 6 4 3 8
5 5 5 4 5 5 5 4 4 4 4 5 6 6 5 5 5 5 5 4 3 2 2 2 2 8 8 3 4 5 6 6 6 6 6 4 4 5 6 5 6 6 5 3 3 3 3 4 4 3 3 4 0 2 4 7 7 6 6 6 5 10
3 5 5 5 4 4 3 3 3 2 2 3 3 3 3 3 3 3 3 3 3 2 2 2 2 4 4 3 2 2 2 1 2 2 5 3 3 3 4 4 3 4 4 5 4 4 3 4 5 3 4 4 2 5 4 7 7 6 6 5 5 12
3 3 4 3 3 1 2 4 2 1 1 2 4 3 3 2 4 3 2 3 3 3 3 3 3 2 3 2 2 3 3 2 2 3 3 4 4 4 5 4 5 5 5 4 5 5 5 5 5 5 5 4 4 7 5 6 6 6 6 6 6 12
4 4 4 3 3 1 2 2 2 2 4 4 4 3 2 2 3 2 1 1 3 3 3 2 2 1 1 1 1 2 3 4 3 4 4 5 5 5 5 5 5 6 5 5 6 7 7 7 6 6 6 6 3 9 7 6 6 6 6 6 7 13
6 4 3 4 3 2 1 2 2 1 3 4 4 4 2 2 2 2 1 0 1 3 3 2 2 0 0 1 0 0 1 3 4 5 4 5 5 5 5 5 5 5 6 6 7 8 7 9 7 8 7 3 1 8 6 6 6 6 6 6 6 9
3 3 3 3 4 2 2 3 2 2 1 3 4 4 4 3 2 1 1 2 1 3 2 2 1 1 1 2 1 0 1 1 3 5 4 5 4 4 5 5 6 6 6 6 6 6 6 6 5 3 4 3 1 8 7 6 6 6 5 5 6 7
3 4 4 4 4 4 4 3 2 3 2 1 2 4 4 4 3 2 1 1 2 2 2 4 3 4 4 3 3 1 1 1 2 3 4 5 5 5 5 5 5 6 6 6 6 3 5 2 4 3 3 3 2 6 7 7 7 6 6 5 5 6
4 4 3 3 3 4 3 4 3 3 3 3 2 2 3 4 3 1 1 1 3 6 5 4 2 4 4 4 4 4 4 2 2 3 1 3 3 3 5 6 6 5 5 3 3 0 2 4 2 2 2 4 3 3 9 7 6 6 6 5 5 5
3 3 3 2 3 3 4 3 4 4 4 2 2 2 1 4 4 4 5 5 5 5 2 6 4 4 5 4 4 4 4 4 4 3 3 3 2 2 3 6 6 5 3 2 0 1 2 2 5 4 2 4 3 2 3 8 7 6 6 6 5 5
4 3 3 3 3 3 3 3 4 4 3 2 3 4 4 6 4 4 3 4 4 1 4 4 4 2 1 4 4 4 4 5 4 3 3 3 2 2 3 5 6 4 2 2 1 1 0 0 4 6 5 0 1 1 1 8 7 7 7 7 6 5
4 4 3 3 3 4 3 3 4 4 2 4 6 5 3 2 3 3 3 4 5 7 6 5 2 3 4 4 3 3 5 5 5 3 3 3 3 3 3 4 4 3 3 3 2 1 1 1 4 3 5 3 3 4 6 6 8 7 7 7 6 6
2 3 2 3 3 3 3 4 4 5 6 6 7 4 4 4 3 4 4 5 7 8 5 5 5 6 4 4 4 5 5 5 4 3 4 3 3 3 4 4 5 3 0 2 2 2 1 1 2 1 1 1 3 4 5 4 8 8 8 7 6 6
4 4 3 4 4 4 6 4 3 4 4 8 8 5 5 4 5 5 5 6 9 3 2 4 6 6 4 4 4 5 6 5 5 5 5 4 3 4 4 4 3 1 1 1 2 2 4 4 4 2 3 4 3 5 5 3 5 8 8 7 6 6
6 5 5 5 5 3 4 4 2 4 5 7 7 6 4 3 2 4 5 7 7 6 7 7 5 5 4 4 5 5 5 5 5 6 5 4 4 5 5 4 3 2 1 4 3 2 1 2 1 1 1 1 7 7 5 5 4 4 5 9 8 7
4 5 4 5 4 3 1 0 3 2 3 6 7 6 5 5 5 3 1 2 3 3 4 5 5 6 6 5 5 4 4 4 5 4 5 4 5 3 4 4 4 1 0 2 4 3 3 3 2 2 1 4 5 1 8 8 5 3 4 5 6 8
4 3 3 3 3 3 2 1 1 2 3 5 5 6 7 6 5 6 3 2 4 4 3 6 6 5 5 4 4 4 4 3 2 3 3 4 4 4 4 3 3 3 1 2 4 4 4 5 3 2 4 5 4 6 3 9 2 3 4 3 5 7
5 4 3 2 2 1 2 2 2 1 1 4 4 4 4 4 4 5 6 7 6 6 5 5 5 5 5 5 4 5 5 4 4 4 4 5 5 5 6 5 5 4 4 2 2 4 4 4 3 3 4 4 4 4 1 1 8 1 4 3 4 5
4 5 5 4 3 2 2 1 1 1 2 3 4 3 3 4 4 6 8 7 6 5 4 4 5 6 7 6 6 5 5 6 5 5 5 6 6 5 5 4 3 3 4 3 2 3 3 4 4 0 1 3 4 2 0 0 0 6 4 4 3 5
5 5 5 4 2 2 1 1 1 2 2 2 5 4 2 2 4 3 4 5 5 5 4 5 5 5 6 7 6 6 6 6 5 5 5 5 4 5 5 5 3 4 3 5 5 5 4 6 3 5 4 3 3 2 1 1 3 3 7 4 4 5
4 4 4 3 3 2 1 2 2 0 1 1 1 2 3 2 2 3 3 3 3 5 5 6 5 5 5 7 8 7 7 6 5 5 5 6 6 7 7 7 7 7 4 3 4 4 6 8 5 4 2 2 2 2 1 2 4 4 7 6 4 4
8 7 6 5 3 2 2 2 2 0 1 1 2 2 3 3 2 2 2 4 4 5 5 6 6 6 5 5 5 6 4 4 3 3 4 7 7 8 7 7 6 6 4 4 4 6 7 8 4 7 2 5 2 2 1 7 6 6 8 7 5 6
8 7 6 8 7 5 4 5 4 3 2 2 2 2 1 1 3 4 3 3 6 5 6 7 7 8 6 6 6 6 5 4 4 7 7 9 8 9 7 7 3 5 8 9 8 5 6 8 7 8 6 3 1 1 4 2 5 5 5 5 6 6
7 8 8 8 8 7 5 6 5 5 4 2 2 0 1 3 2 3 4 4 5 6 6 6 7 7 6 4 4 6 3 4 6 7 7 7 7 7 7 8 8 9 9 9 8 6 4 5 9 10 6 4 3 5 5 0 4 5 3 5 5 6
9 8 8 9 9 7 7 7 6 4 3 4 4 3 2 1 2 2 2 2 2 0 3 4 3 3 4 4 7 6 5 5 6 7 6 6 7 8 8 8 8 8 8 9 6 7 7 6 5 6 8 8 3 2 3 4 5 1 3 3 4 6
7 7 8 8 9 9 7 7 8 8 7 6 5 4 4 3 3 2 3 0 0 1 2 3 4 5 5 3 4 6 4 5 7 7 5 5 7 8 7 7 8 10 7 6 8 9 7 6 8 6 6 8 6 5 4 3 5 5 2 5 5 3
7 7 7 9 8 9 9 8 8 7 7 8 7 7 6 6 6 6 5 4 3 3 4 2 3 5 4 1 1 2 4 4 5 6 6 7 7 7 8 8 8 7 7 8 8 7 7 7 8 7 5 6 6 8 5 4 2 3 4 3 4 7
6 6 5 6 7 8 8 8 8 9 10 8 8 8 7 7 7 6 7 7 6 5 5 5 5 3 3 1 0 2 5 7 6 5 5 6 7 9 10 8 9 8 10 11 9 9 9 9 8 7 8 6 7 5 2 2 4 5 5 5 5 7
4 4 4 5 5 6 6 7 8 8 9 9 9 7 7 8 8 7 9 8 8 7 5 4 5 6 5 4 3 2 3 4 3 3 6 7 7 7 5 7 7 7 7 6 4 7 7 8 6 7 8 8 10 10 10 10 9 7 7 5 3 5
3 3 3 4 5 6 6 7 7 7 7 6 7 6 7 8 8 8 8 7 7 7 7 6 5 5 6 5 4 5 4 3 3 4 5 5 6 6 7 7 7 7 8 8 8 8 9 9 9 7 8 8 8 8 7 8 7 8 10 7 6 5
3 3 3 4 5 5 4 5 5 4 4 4 5 6 6 7 7 7 7 8 8 7 7 8 7 7 6 6 6 6 6 5 6 5 5 5 6 7 6 5 7 7 7 7 7 9 8 9 9 8 9 8 8 7 8 7 6 7 8 5 6 6
4 4 4 4 4 4 5 4 4 4 3 5 5 6 6 7 8 7 6 7 7 8 8 8 9 8 7 6 6 5 4 4 4 5 5 6 6 5 4 5 6 7 8 8 7 10 8 7 7 9 7 8 7 7 8 8 8 7 5 2 5 7
6 6 5 4 4 5 5 8 7 4 4 4 6 6 6 6 6 8 8 8 8 8 8 8 8 8 8 7 6 5 4 4 4 4 4 5 6 5 4 3 4 6 7 6 5 5 7 9 8 8 8 9 9 8 8 6 5 7 7 11 9 7
5 5 4 4 4 5 7 7 8 8 7 4 4 4 4 4 4 5 6 7 6 6 6 7 8 8 9 8 7 6 5 5 4 4 4 4 5 5 5 5 5 5 7 4 5 7 7 8 10 11 10 9 6 9 8 7 6 6 6 7 8 6
6 7 7 6 5 6 7 8 8 9 7 6 6 5 5 5 5 4 4 4 5 6 6 7 7 8 9 9 7 7 7 6 5 5 4 5 5 5 4 5 6 6 5 5 6 6 6 6 7 7 8 9 8 7 7 7 7 6 6 6 5 7
Wind_Direction
171 175 172 160 147 149 159 158 157 154 149 147 144 147 151 152 146 148 148 150 145 144 143 143 140 143 148 146 143 139 130 125 111 102 111 114 132 143 149 149 147 168 198 214 218 258 285 297 309 319 324 328 349 37 40 93 100 99 96 100 104 122
179 174 158 136 136 154 167 166 159 154 150 146 147 149 151 148 143 143 153 154 165 167 144 146 159 158 150 155 148 146 142 128 116 107 104 120 140 157 164 165 168 183 210 225 225 233 270 291 300 307 305 315 9 13 89 110 103 103 100 94 104 117
177 162 144 132 151 165 174 170 168 162 155 150 152 150 154 155 149 157 158 157 178 138 109 136 169 156 172 138 145 151 141 138 126 130 134 144 165 180 173 176 186 203 222 241 252 271 257 263 287 298 309 325 15 19 99 112 104 106 111 113 107 127
164 139 123 131 150 174 178 167 177 179 166 155 152 152 163 163 163 165 168 160 136 120 78 67 342 177 158 127 138 142 149 141 152 149 155 153 181 187 192 192 197 206 230 255 262 276 277 266 248 252 279 290 296 97 133 112 114 120 123 128 129 125
140 142 132 139 147 178 170 139 164 177 166 142 118 122 133 76 70 56 110 109 118 112 91 54 47 14 100 117 116 121 121 128 151 173 166 163 180 188 189 182 194 208 227 241 255 259 255 255 253 246 249 257 247 127 141 123 126 128 134 136 139 140
164 165 138 131 135 174 122 116 93 76 89 68 88 76 58 76 71 68 70 110 111 101 74 63 37 31 46 92 156 154 158 173 192 206 178 191 186 189 189 198 187 195 218 243 247 251 244 234 234 232 234 232 221 123 143 128 127 130 133 140 144 139
173 178 147 124 106 95 116 82 56 77 89 84 92 99 95 74 92 93 62 78 115 103 87 76 73 24 54 54 141 200 181 181 204 225 207 197 207 198 192 200 198 193 203 218 238 240 241 237 220 217 226 227 155 134 143 140 133 136 141 139 143 146
180 163 108 117 120 118 80 75 89 113 88 131 121 132 125 115 95 105 119 89 78 107 117 100 83 67 335 350 57 338 228 215 216 222 231 212 213 211 204 203 206 201 199 214 228 235 236 236 218 194 199 208 229 131 138 135 137 140 141 144 145 153
161 127 124 135 126 126 92 71 74 77 118 156 134 130 126 112 111 147 165 137 114 113 111 94 120 155 170 236 271 35 357 299 247 240 230 239 223 221 217 213 202 213 210 225 235 254 246 208 169 166 169 178 94 132 134 134 140 143 141 143 146 155
167 152 158 139 137 138 146 136 141 152 173 144 132 137 136 132 138 154 231 108 110 79 102 152 175 178 183 218 220 234 215 229 285 278 261 245 235 237 239 233 211 207 216 227 245 285 320 237 193 155 143 119 123 124 141 141 148 150 145 144 156 160
173 169 151 144 142 147 151 154 162 161 165 175 179 124 121 108 104 107 98 67 52 51 7 316 200 180 192 204 207 210 212 201 216 263 284 266 303 281 268 239 220 202 205 236 253 132 10 324 236 222 145 156 177 109 132 147 145 144 145 150 158 164
168 147 134 141 144 146 164 164 167 171 183 173 144 110 100 82 49 25 23 13 37 57 279 256 259 187 192 197 209 214 229 207 219 220 245 250 239 282 292 271 241 216 177 146 298 51 77 27 327 307 179 172 158 132 136 141 137 148 152 159 159 165
140 136 130 147 148 152 160 166 170 186 179 135 103 85 67 86 134 126 112 102 94 219 229 269 277 280 234 193 206 222 230 232 230 211 215 251 267 269 294 297 265 229 125 106 91 355 25 98 11 355 327 5 42 149 189 132 142 156 162 165 165 163
123 133 153 144 159 148 187 185 171 171 161 130 64 38 59 133 137 119 131 127 159 191 212 230 232 281 256 197 205 223 229 244 244 233 219 227 252 270 284 293 279 249 179 148 169 170 298 337 69 19 40 36 60 314 306 148 157 162 164 169 171 166
112 137 160 149 161 182 181 207 183 169 174 115 102 154 136 134 142 158 155 169 198 195 197 208 191 220 236 197 196 216 228 235 244 242 234 227 215 260 256 257 283 299 66 131 161 166 144 77 84 41 16 95 168 272 276 175 152 160 168 171 168 171
173 163 183 165 178 193 184 213 193 182 132 118 140 137 137 172 164 166 170 187 219 193 151 207 197 209 218 218 215 211 217 217 222 227 232 229 206 231 243 251 255 275 248 279 173 175 89 72 52 33 4 339 294 263 259 191 161 156 162 162 169 170
172 164 183 171 183 207 184 215 141 108 124 125 131 135 140 149 179 184 176 205 218 162 184 209 203 215 223 202 221 227 214 208 208 220 226 228 218 220 227 232 246 231 187 213 219 155 119 99 107 106 102 41 302 314 304 265 176 171 142 156 169 173
175 165 173 168 168 177 130 81 96 98 93 94 108 121 138 163 177 141 82 276 262 218 154 187 206 223 231 220 219 228 241 202 188 213 238 236 236 234 239 223 235 220 88 199 198 169 148 128 152 145 172 209 232 303 263 249 176 161 151 174 152 172
121 101 107 121 143 139 154 171 118 131 127 105 126 146 157 160 172 130 162 202 226 247 205 197 205 230 249 254 256 257 257 250 187 206 241 254 256 250 246 250 235 229 158 131 169 187 164 151 178 182 209 228 213 226 233 283 247 145 148 178 158 169
104 119 102 85 91 122 141 193 221 258 83 120 135 143 156 164 155 130 163 203 206 207 216 213 202 214 237 242 229 234 242 245 219 192 215 237 243 236 235 234 235 220 211 162 143 152 149 145 137 160 194 245 254 263 272 258 299 234 150 170 168 156
60 68 70 63 48 71 69 4 46 118 152 157 141 131 150 160 171 166 173 190 197 198 213 226 226 211 220 233 237 232 213 213 202 194 202 226 233 241 241 234 231 207 207 208 205 166 166 140 143 129 282 247 252 243 351 79 259 328 297 201 175 163
61 54 57 47 24 52 87 131 141 161 149 130 129 144 187 202 184 169 157 166 178 188 207 221 218 210 222 228 243 248 237 225 209 209 216 224 230 233 236 235 212 225 202 197 223 186 175 127 174 189 181 250 289 306 202 110 254 201 248 249 184 181
49 64 55 51 54 33 14 76 85 227 135 118 137 163 160 169 163 174 192 195 188 179 190 212 211 207 204 207 213 224 228 225 217 208 219 231 233 235 225 223 209 209 209 216 222 198 183 187 180 173 143 91 233 250 276 224 239 243 245 234 197 194
32 33 23 6 29 23 39 33 1 228 170 145 186 167 153 137 159 169 212 213 212 195 191 197 209 215 221 225 222 234 261 283 270 270 247 246 227 231 229 230 219 217 187 205 210 220 194 195 170 145 180 198 213 165 228 234 209 221 205 218 192 205
43 34 20 13 5 360 21 13 360 4 28 17 46 70 95 178 190 195 203 212 229 210 200 198 200 207 212 218 222 226 220 250 267 230 226 228 224 222 219 234 213 224 210 213 215 207 211 198 205 200 148 123 62 250 222 199 173 236 195 207 211 198
37 31 20 13 9 7 18 30 14 12 4 356 332 353 271 274 266 190 207 216 212 210 213 209 201 203 210 215 249 251 238 208 246 245 235 238 237 237 232 225 208 213 229 220 215 198 195 230 214 215 205 203 170 174 167 240 119 234 210 211 201 202
28 26 17 13 9 11 17 15 12 10 31 24 359 314 301 290 274 264 234 253 278 272 255 238 251 220 217 230 237 239 234 214 230 239 243 244 252 235 239 238 236 219 227 229 207 221 197 194 223 226 217 231 282 273 124 130 204 67 196 224 215 201
29 26 18 13 11 13 21 21 23 16 11 13 12 350 352 347 351 326 321 307 147 165 216 229 268 270 246 175 213 245 225 215 227 234 246 258 274 249 237 234 236 228 219 221 211 212 210 189 184 217 199 215 216 243 193 176 189 190 230 184 219 237
31 27 23 17 18 20 28 28 24 18 19 16 6 0 352 355 357 351 351 343 354 333 322 271 264 281 289 332 101 52 349 321 252 248 241 247 251 270 255 245 239 235 228 221 209 206 203 210 203 196 170 217 183 227 211 202 198 178 208 193 223 196
32 31 26 23 23 27 32 27 32 31 28 17 9 3 0 2 9 2 8 356 340 338 330 345 322 332 341 354 200 198 246 250 242 240 244 243 246 246 250 250 246 246 238 222 198 203 204 214 208 198 186 170 191 196 195 262 227 211 235 223 179 201
38 31 28 29 36 36 39 42 39 34 31 22 11 5 3 11 6 3 8 356 354 348 350 330 317 329 322 311 307 249 245 249 241 239 246 249 245 246 273 279 261 252 263 255 206 209 215 222 213 209 196 180 198 197 193 193 202 199 202 211 189 203
22 25 21 30 45 37 41 43 45 40 36 27 15 8 10 9 8 5 1 353 356 356 352 342 340 336 321 319 322 313 295 288 287 276 263 250 250 243 235 241 248 245 249 241 218 205 210 211 211 209 206 198 203 202 202 200 199 191 197 208 188 192
2 14 17 40 52 44 44 46 43 38 39 35 29 18 12 8 8 6 355 357 360 358 352 349 344 338 330 325 326 325 328 319 305 289 276 269 258 250 244 245 250 251 245 242 206 212 208 206 206 214 214 204 203 203 209 214 203 184 207 187 186 184
18 18 20 42 54 48 44 33 39 28 33 38 31 19 13 11 6 358 356 359 3 359 353 350 345 343 328 328 326 314 309 306 295 300 302 296 286 273 268 253 250 254 250 241 213 207 216 215 217 220 217 209 206 207 212 206 207 197 145 113 234 209
19 16 25 36 63 55 47 36 15 12 20 45 40 31 24 14 7 359 357 5 4 356 351 344 340 330 333 333 323 316 317 300 291 289 293 300 295 288 286 291 280 268 277 245 214 198 211 210 215 229 222 223 208 212 218 207 190 199 157 187 198 196
34 29 28 32 39 45 41 49 37 26 19 36 42 48 31 21 10 5 7 6 355 348 342 335 332 334 332 332 331 326 314 298 288 283 281 284 292 294 296 292 279 269 254 213 207 209 218 203 207 219 225 229 222 223 220 208 202 200 190 187 197 187
36 27 23 29 45 42 40 43 34 29 25 27 25 26 27 18 12 359 8 7 357 343 337 338 340 343 338 333 332 332 325 311 306 297 289 282 283 284 289 290 285 278 268 256 255 244 229 220 218 215 235 228 221 225 227 215 206 212 211 199 186 192